Regional Weather Roundup
Issued by NWS

Current Version | Previous Version | Text Only | Print | Product List | Glossary On
Versions: 1 2 3 4 5 6 7 8 9 10 11 12 13 14 15 16 17 18 19 20 21 22 23 24 25 26 27 28 29 30 31 32 33 34 35 36 37 38 39 40 41 42 43 44 45 46 47 48 49 50
000
ASUS45 KABQ 292110
RWRNM
NEW MEXICO REGIONAL WEATHER ROUNDUP
NATIONAL WEATHER SERVICE ALBUQUERQUE NM
300 PM MDT FRI JUL 29 2016

NOTE: "FAIR" MEANS FEW OR NO CLOUDS BELOW 12,000 FEET AGL WITH NO
       SIGNIFICANT WEATHER OR OBSTRUCTIONS TO VISION.

      THIS PRODUCT IS RELEASED AS TWO VERSIONS.  ONE VERSION NEAR
      THE TOP OF THE HOUR CONTAINING PRELIMINARY DATA FROM ALBUQUERQUE
      AND OTHER STATIONS.  A FINAL VERSION WITH ADDITIONAL DATA IS
      ISSUED ABOUT 10 MINUTES AFTER THE HOUR.

NMZ501-503-504-510>518-292200-
NORTHWEST PLATEAU/NORTHCENTRAL MOUNTAINS

CITY           SKY/WX    TMP DP  RH WIND       PRES   REMARKS
FARMINGTON     FAIR      97  29   9 N10G17    30.04F
LOS ALAMOS     FAIR      80  36  20 W7        30.26S
SANTA FE       LGT RAIN  83  30  14 MISG      30.16S
TAOS           CLOUDY    66  37  34 E31G38    30.30R THUNDER
ANGEL FIRE     PTSUNNY   67  36  31 W39G51    30.38R

$$
NMZ402-403-502-505>509-292200-
WESTCENTRAL MOUNTAINS/SOUTHWEST MOUNTAINS

CITY           SKY/WX    TMP DP  RH WIND       PRES   REMARKS
GALLUP         FAIR      81  38  21 N36G49    30.22R
GRANTS         FAIR      82  47  30 SE22G33   30.23R
SILVER CITY    FAIR      88  47  24 SE14      30.14F

$$
NMZ407-409-411-412-292200-
SOUTHERN DESERTS

CITY           SKY/WX    TMP DP  RH WIND       PRES   REMARKS
LORDSBURG      FAIR      99  46  16 E14G25    30.02F HX  95
DEMING         FAIR      99  43  14 E20G26    30.05F HX  95
LAS CRUCES     FAIR      97  41  14 E9G18     30.07F
HOLLOMAN AFB   FAIR      93  52  24 VRB5      30.00F
ALAMOGORDO     FAIR      93  50  22 NW8       30.04F
T OR C         FAIR      89  42  19 N10       30.10F

$$
NMZ519>523-292200-
CENTRAL VALLEYS/CENTRAL HIGHLANDS

CITY           SKY/WX    TMP DP  RH WIND       PRES   REMARKS
ALBUQUERQUE    PTSUNNY   90  46  21 SW20G29   30.12F
DOUBLE EAGLE   PTSUNNY   88  48  25 S23G35    30.15F
MORIARTY ARPT  FAIR      89  35  14 S14G20    30.17F
CLINES CORNERS FAIR      85  44  23 SW12G21   30.25F
BELEN          FAIR      85  40  20 S20G25    30.15R
SOCORRO        FAIR      85  44  24 SW5       30.11F

$$
NMZ524>526-539-540-292200-
SOUTHCENTRAL MOUNTAINS

CITY           SKY/WX    TMP DP  RH WIND       PRES   REMARKS
RUIDOSO          N/A     81  36  19 SE8       30.28S

$$
NMZ527>531-292200-
NORTHEAST HIGHLANDS/NORTHEAST PLAINS

CITY           SKY/WX    TMP DP  RH WIND       PRES   REMARKS
LAS VEGAS      FAIR      82  35  18 W20G25    30.21F
RATON          FAIR      86  47  25 SE21      30.12F
CLAYTON        FAIR      88  57  34 SE20G28   30.11F

$$
NMZ532>537-292200-
EASTCENTRAL PLAINS

CITY           SKY/WX    TMP DP  RH WIND       PRES   REMARKS
TUCUMCARI      FAIR      98  47  17 SW16G29   30.01F
CANNON AFB     FAIR      92  53  26 S15G25    30.08F
CLOVIS AIRPORT FAIR      91  57  31 S16G26    30.08F

$$
NMZ028-029-538-292200-
SOUTHEAST PLAINS

CITY           SKY/WX    TMP DP  RH WIND       PRES   REMARKS
ROSWELL        FAIR      97  51  21 SE17      30.03F
ARTESIA        FAIR      95  54  24 SE12      30.03F
CARLSBAD       FAIR      94  56  27 E14G24    30.02F
HOBBS          MOSUNNY   91  54  27 SE15      30.09F


$$



USA.gov is the U.S. government's official web portal to all federal, state and local government web resources and services.